[[{"header":{"parameterUnit":"m.s-1","parameterCategory":1,"la1":30.2991,"la2":30.254,"lo1":-89.0895,"lo2":-89.0444,"dy":0.0017,"dx":0.0017,"nx":28,"ny":28,"refTime":"2025-08-17T03:00:00:Z","depth":0,"parameterNumber":2,"parameterNumberName":"U-component_of_WINDS"},"data":[0,0,0,0,0,0,0,0,0,0,0,0,0,0,0,0,0,0,0,0,0,0,0,0,0,0,0,0,0,0,0,0,0,0,0,0,0,0,0,0,0,0,0,0,0,0,0,0,0,0,0,0,0,0,0,0,0,0,-1.2673,-1.2672,0,-1.2562,-1.256,-1.2559,-1.2504,-1.2504,-1.2504,-1.2504,-1.2387,-1.2384,-1.238,0,0,0,0,0,0,0,0,0,0,0,0,0,-1.2837,-1.2835,-1.2673,-1.2672,-1.2671,-1.2562,-1.256,-1.2559,-1.2504,-1.2504,-1.2504,-1.2504,-1.2388,-1.2384,-1.238,0,0,0,0,0,0,0,0,0,0,0,0,0,-1.275,-1.2834,-1.2674,-1.263,-1.2625,-1.2562,-1.256,-1.2558,-1.2504,-1.2504,-1.2504,-1.2504,-1.2389,-1.2384,-1.238,-1.235,0,0,-1.2365,-1.2363,0,0,0,0,0,0,0,0,-1.2755,-1.2744,-1.2638,-1.2633,-1.2628,-1.2547,-1.2575,-1.2488,-1.2504,-1.255,-1.2504,-1.2504,-1.244,-1.2431,-1.241,-1.2344,-1.2339,-1.2365,-1.2362,-1.236,-1.2359,0,0,0,0,0,0,0,-1.2761,-1.2748,-1.2629,-1.2637,-1.263,-1.2616,-1.2603,-1.2558,-1.2496,-1.2546,-1.2542,-1.253,-1.2437,-1.2414,-1.2407,-1.2338,-1.2365,-1.2361,-1.2358,-1.2356,-1.2243,-1.2243,0,0,0,0,0,0,-1.2774,-1.2754,-1.2633,-1.2626,-1.2693,-1.2613,-1.2599,-1.2573,-1.2496,-1.2485,-1.253,-1.2527,-1.2422,-1.2412,-1.2402,-1.2363,-1.236,-1.2356,-1.2353,-1.2243,-1.2243,-1.2243,0,0,0,0,0,0,-1.2778,-1.2764,-1.2637,-1.2689,-1.2671,-1.261,-1.2581,-1.2571,-1.2548,-1.2484,-1.2472,-1.2518,-1.2422,-1.2409,-1.2364,-1.2358,-1.2353,-1.2349,-1.2243,-1.2243,-1.2243,-1.2284,0,0,0,0,0,0,-1.2783,-1.2766,-1.2754,-1.2689,-1.2669,-1.2601,-1.2581,-1.2568,-1.254,-1.2536,-1.247,-1.2459,-1.2421,-1.2371,-1.2359,-1.2351,-1.2345,-1.2244,-1.2243,-1.2243,-1.2283,-1.2285,-1.2287,0,0,0,0,0,-1.2789,-1.2769,-1.2754,-1.274,-1.2653,-1.2601,-1.2589,-1.2547,-1.254,-1.2528,-1.2487,-1.2461,-1.2361,-1.2367,-1.2353,-1.2344,-1.2244,-1.2243,-1.2243,-1.2282,-1.2284,-1.2287,0,0,0,0,0,0,-1.2834,-1.276,-1.2742,-1.2701,-1.2658,-1.2592,-1.2575,-1.2551,-1.2508,-1.2506,-1.2454,-1.244,-1.2399,-1.2367,-1.2375,-1.2311,-1.23,-1.2297,-1.2334,-1.2336,-1.2338,-1.2347,-1.2341,0,0,0,0,0,-1.284,-1.2804,-1.2741,-1.271,-1.269,-1.2637,-1.2612,-1.2583,-1.2536,-1.2517,-1.2473,-1.2428,-1.2386,-1.2359,-1.2317,-1.2278,-1.2263,-1.2265,-1.2267,-1.2269,-1.2267,-1.2244,-1.2245,-1.2242,-1.2242,-1.2242,0,0,-1.285,-1.2805,-1.2785,-1.2718,-1.2682,-1.2646,-1.2621,-1.2584,-1.2557,-1.2511,-1.2466,-1.2433,-1.2378,-1.2337,-1.2316,-1.2308,-1.2264,-1.2269,-1.2271,-1.2267,-1.2244,-1.2244,-1.2245,-1.2241,-1.2242,-1.2242,0,0,-1.285,-1.2813,-1.2783,-1.2748,-1.2693,-1.2658,-1.2651,-1.2589,-1.2565,-1.252,-1.2486,-1.2452,-1.2381,-1.2344,-1.2316,-1.2304,-1.2279,-1.2292,-1.2303,-1.2282,-1.2282,-1.2282,-1.2278,-1.2277,-1.229,-1.229,-1.229,0,-1.2869,-1.2814,-1.2771,-1.2736,-1.2708,-1.2667,-1.2637,-1.2604,-1.2538,-1.2519,-1.2512,-1.2423,-1.2383,-1.2333,-1.233,-1.2309,-1.2299,-1.2299,-1.2286,-1.2285,-1.2284,-1.228,-1.2279,-1.2292,-1.2292,-1.2292,-1.2291,0,-1.2841,-1.2803,-1.2786,-1.2726,-1.2695,-1.2663,-1.2614,-1.2589,-1.2563,-1.2529,-1.2483,-1.2435,-1.2383,-1.2369,-1.2342,-1.2314,-1.2312,-1.2296,-1.2283,-1.2287,-1.2282,-1.228,-1.2295,-1.2294,-1.2294,-1.2293,0,0,-1.2865,-1.2782,-1.2776,-1.2749,-1.2686,-1.2656,-1.2622,-1.2573,-1.2552,-1.2508,-1.2478,-1.242,-1.2406,-1.2374,-1.2343,-1.2325,-1.232,-1.2311,-1.2309,-1.2315,-1.2286,-1.2299,-1.2298,-1.2303,-1.2303,-1.2302,-1.2291,0,-1.2856,-1.2794,-1.2755,-1.2709,-1.2674,-1.2635,-1.2606,-1.2564,-1.2532,-1.2497,-1.246,-1.242,-1.2404,-1.2385,-1.2365,-1.2325,-1.2313,-1.2325,-1.2274,-1.2273,-1.2289,-1.2295,-1.2307,-1.2299,-1.2289,-1.2288,-1.2288,0,-1.2837,-1.2797,-1.2748,-1.269,-1.2674,-1.2648,-1.26,-1.2568,-1.252,-1.2498,-1.2464,-1.2433,-1.2395,-1.2387,-1.2334,-1.2343,-1.232,-1.2297,-1.2296,-1.2289,-1.2281,-1.2288,-1.2295,-1.2294,-1.2285,-1.2285,-1.2285,0,-1.286,-1.2793,-1.2755,-1.2732,-1.2665,-1.2648,-1.2618,-1.2571,-1.2544,-1.2502,-1.2484,-1.2438,-1.2412,-1.2377,-1.2335,-1.2332,-1.2287,-1.2274,-1.2267,-1.2268,-1.2258,-1.2259,-1.2262,-1.2244,-1.2244,-1.2244,-1.2244,0,-1.2854,-1.2826,-1.2764,-1.2741,-1.2708,-1.2663,-1.2632,-1.2599,-1.2558,-1.2527,-1.249,-1.2462,-1.2408,-1.2374,-1.234,-1.2302,-1.2291,-1.2271,-1.2263,-1.2274,-1.2277,-1.2258,-1.2258,-1.2244,-1.2244,-1.2244,-1.2244,0,-1.2874,-1.2832,-1.2788,-1.2728,-1.2713,-1.2691,-1.2639,-1.2615,-1.2581,-1.2543,-1.2531,-1.2478,-1.2435,-1.239,-1.2331,-1.2309,-1.2273,-1.226,-1.2289,-1.2284,-1.2279,-1.2281,-1.227,-1.2266,-1.2251,-1.2252,-1.2252,0,-1.2873,-1.285,-1.2789,-1.2766,-1.2739,-1.2703,-1.2676,-1.2631,-1.2604,-1.2549,-1.2532,-1.2487,-1.2448,-1.2382,-1.2337,-1.2293,-1.2279,-1.2279,-1.2272,-1.2285,-1.228,-1.2281,-1.2279,-1.2281,-1.2281,-1.2281,-1.2282,0,-1.2876,-1.2856,-1.2819,-1.2776,-1.2745,-1.2708,-1.2669,-1.2653,-1.26,-1.2572,-1.2529,-1.25,-1.2441,-1.2397,-1.2347,-1.2316,-1.229,-1.2284,-1.228,-1.2292,-1.2309,-1.23,-1.2295,-1.2284,-1.2284,-1.2284,-1.2284,-1.2284,-1.2884,-1.2863,-1.2817,-1.2777,-1.2744,-1.271,-1.2684,-1.2648,-1.2612,-1.2562,-1.2537,-1.2494,-1.2448,-1.2379,-1.2349,-1.2314,-1.2306,-1.23,-1.2299,-1.2298,-1.2301,-1.2316,-1.2305,-1.2305,-1.2305,-1.2305,-1.2305,0,-1.2885,-1.2855,-1.2819,-1.2767,-1.2736,-1.2716,-1.2673,-1.2648,-1.2611,-1.257,-1.2534,-1.2485,-1.2442,-1.2395,-1.235,-1.2331,-1.2318,-1.2321,-1.2322,-1.2315,-1.2311,-1.2319,-1.2332,-1.2332,-1.2332,-1.2332,-1.2332,-1.2332,-1.2882,-1.2845,-1.2821,-1.2767,-1.2736,-1.2695,-1.2672,-1.264,-1.2607,-1.2555,-1.252,-1.249,-1.2447,-1.2398,-1.2359,-1.2346,-1.2331,-1.2337,-1.2321,-1.2317,-1.2315,-1.2313,-1.2321,-1.2334,-1.2334,-1.2328,-1.2328,-1.2328]},{"header":{"parameterUnit":"m.s-1","parameterCategory":1,"la1":30.2991,"la2":30.254,"lo1":-89.0895,"lo2":-89.0444,"dy":0.0017,"dx":0.0017,"nx":28,"ny":28,"refTime":"2025-08-17T03:00:00:Z","depth":0,"parameterNumber":3,"parameterNumberName":"V-component_of_WINDS"},"data":[0,0,0,0,0,0,0,0,0,0,0,0,0,0,0,0,0,0,0,0,0,0,0,0,0,0,0,0,0,0,0,0,0,0,0,0,0,0,0,0,0,0,0,0,0,0,0,0,0,0,0,0,0,0,0,0,0,0,1.3637,1.3636,0,1.3617,1.3617,1.3616,1.3658,1.3659,1.366,1.3662,1.3636,1.3634,1.3632,0,0,0,0,0,0,0,0,0,0,0,0,0,1.3705,1.3704,1.3637,1.3636,1.3636,1.3617,1.3617,1.3616,1.3657,1.3659,1.3661,1.3662,1.3636,1.3634,1.3632,0,0,0,0,0,0,0,0,0,0,0,0,0,1.3679,1.3703,1.3637,1.3654,1.3656,1.3617,1.3617,1.3616,1.3657,1.3659,1.3661,1.3663,1.3637,1.3634,1.3631,1.3573,0,0,1.3623,1.3621,0,0,0,0,0,0,0,0,1.3681,1.3677,1.3652,1.3653,1.3655,1.3642,1.3631,1.3601,1.3657,1.3656,1.3662,1.3664,1.3636,1.3633,1.3625,1.3571,1.357,1.3622,1.362,1.3619,1.3618,0,0,0,0,0,0,0,1.3682,1.3678,1.3629,1.3652,1.3653,1.3662,1.366,1.3626,1.3635,1.3657,1.366,1.3657,1.3637,1.3627,1.3624,1.357,1.3622,1.362,1.3618,1.3617,1.3466,1.3464,0,0,0,0,0,0,1.3683,1.3679,1.3629,1.3628,1.3673,1.3659,1.3657,1.3644,1.3635,1.3636,1.3655,1.3659,1.3631,1.3628,1.3624,1.3553,1.3619,1.3616,1.3615,1.3468,1.3466,1.3463,0,0,0,0,0,0,1.3684,1.3678,1.363,1.3654,1.3649,1.3656,1.364,1.3642,1.3633,1.3634,1.3636,1.3644,1.3633,1.3628,1.3585,1.3552,1.3615,1.3613,1.3471,1.3467,1.3464,1.3411,0,0,0,0,0,0,1.3686,1.3678,1.3657,1.3654,1.3648,1.3593,1.3638,1.3641,1.3629,1.3633,1.3624,1.3625,1.3634,1.3589,1.3582,1.355,1.361,1.3474,1.3469,1.3465,1.3416,1.3406,1.3398,0,0,0,0,0,1.3688,1.3642,1.3656,1.3649,1.3621,1.3591,1.3587,1.3601,1.3626,1.3604,1.3604,1.3625,1.3558,1.3585,1.3577,1.3543,1.3476,1.3471,1.3466,1.342,1.3408,1.3399,0,0,0,0,0,0,1.3639,1.3642,1.3657,1.3609,1.36,1.3598,1.357,1.3588,1.357,1.3575,1.3591,1.3589,1.3542,1.3539,1.3568,1.3485,1.3521,1.3514,1.3488,1.3478,1.3469,1.3469,1.3608,0,0,0,0,0,1.3623,1.36,1.3603,1.356,1.3555,1.3563,1.3551,1.3562,1.3552,1.3548,1.3546,1.3534,1.3511,1.3494,1.3473,1.3417,1.3414,1.3389,1.3381,1.3374,1.3366,1.3335,1.3323,1.3446,1.3447,1.3447,0,0,1.3588,1.3587,1.3571,1.355,1.3544,1.3518,1.356,1.353,1.351,1.3543,1.3502,1.3501,1.3489,1.3439,1.3417,1.3434,1.3332,1.3367,1.3361,1.3358,1.3328,1.3317,1.3306,1.3443,1.3444,1.3444,0,0,1.3511,1.3509,1.3472,1.3466,1.3458,1.3465,1.3456,1.3452,1.3452,1.3413,1.3436,1.3413,1.3372,1.3362,1.3352,1.3273,1.329,1.3265,1.3218,1.3187,1.3177,1.3169,1.3138,1.3127,1.3259,1.3259,1.3259,0,1.3469,1.3432,1.3451,1.342,1.3409,1.344,1.3402,1.3394,1.3378,1.3369,1.3391,1.334,1.3334,1.3282,1.3262,1.3254,1.3242,1.3265,1.3178,1.3169,1.3161,1.3132,1.3121,1.3256,1.3256,1.3256,1.3257,0,1.3379,1.3353,1.3324,1.331,1.3296,1.3261,1.3273,1.3257,1.327,1.3274,1.3232,1.3227,1.3204,1.3193,1.3205,1.3141,1.3153,1.3176,1.3211,1.3146,1.3119,1.3108,1.3251,1.3252,1.3253,1.3254,0,0,1.3268,1.3266,1.3254,1.3248,1.3242,1.3221,1.3188,1.3167,1.3152,1.3141,1.3111,1.3077,1.3098,1.3086,1.3098,1.3071,1.3006,1.3097,1.3097,1.3078,1.2933,1.2913,1.29,1.3019,1.3017,1.3015,1.2933,0,1.319,1.3134,1.315,1.3093,1.3068,1.3098,1.3069,1.3061,1.3063,1.3042,1.3045,1.3019,1.305,1.3043,1.3018,1.3019,1.2976,1.3026,1.2989,1.2987,1.2988,1.2887,1.2866,1.2788,1.2923,1.2921,1.292,0,1.3091,1.3077,1.3018,1.3015,1.3005,1.2979,1.2961,1.2941,1.2932,1.2936,1.2924,1.2941,1.2906,1.2945,1.2896,1.2929,1.2915,1.2913,1.2911,1.2905,1.2947,1.2875,1.2764,1.2751,1.2904,1.2905,1.2906,0,1.3012,1.2979,1.2939,1.2933,1.293,1.291,1.2908,1.2901,1.2888,1.2872,1.2863,1.2844,1.2832,1.2815,1.2825,1.2853,1.2774,1.2814,1.2774,1.2773,1.2753,1.2753,1.2635,1.2749,1.2749,1.275,1.275,0,1.2922,1.2883,1.2904,1.2878,1.2836,1.2855,1.2812,1.2813,1.2808,1.2782,1.2807,1.2782,1.2799,1.2775,1.2783,1.274,1.2735,1.2735,1.2737,1.2731,1.2731,1.272,1.2724,1.2747,1.2747,1.2748,1.2748,0,1.2825,1.2838,1.2796,1.2797,1.2796,1.2765,1.2765,1.2741,1.2747,1.2714,1.2707,1.2715,1.2688,1.2698,1.2669,1.2675,1.2619,1.2629,1.2622,1.2623,1.2581,1.2584,1.2449,1.2432,1.256,1.2559,1.2558,0,1.2765,1.2736,1.2735,1.2721,1.2717,1.2693,1.268,1.2698,1.2683,1.2672,1.2648,1.2624,1.2605,1.2561,1.2563,1.254,1.2548,1.2503,1.2545,1.2539,1.2544,1.2544,1.2541,1.2493,1.2492,1.2491,1.249,0,1.2656,1.2664,1.2645,1.2628,1.2612,1.2599,1.2588,1.2575,1.2592,1.2574,1.2547,1.2533,1.2504,1.2479,1.2459,1.2455,1.2473,1.2477,1.2466,1.2458,1.2453,1.2452,1.2596,1.2479,1.248,1.2481,1.2481,1.2482,1.2574,1.2549,1.2545,1.2522,1.2517,1.2506,1.2483,1.2487,1.2466,1.2445,1.2457,1.2426,1.2417,1.2393,1.2386,1.2361,1.2378,1.2363,1.2358,1.2353,1.2347,1.2461,1.2358,1.2358,1.2358,1.2358,1.2359,0,1.2463,1.2463,1.2442,1.2427,1.2409,1.2433,1.2422,1.2404,1.2377,1.2369,1.2351,1.232,1.2295,1.2297,1.2274,1.2253,1.2261,1.2246,1.2246,1.2244,1.2334,1.2344,1.224,1.224,1.224,1.224,1.224,1.224,1.2404,1.2363,1.2371,1.2327,1.2326,1.2297,1.2288,1.2278,1.2272,1.2236,1.2217,1.2219,1.2214,1.2191,1.2169,1.217,1.2159,1.214,1.2144,1.2227,1.2238,1.2249,1.2259,1.2138,1.2138,1.2056,1.2055,1.2055]}]]